Change the Weather History Date:

Monday, March 18, 2013

  Actual Average Record
Temperature  
Mean Temperature 16 °F -  
Max Temperature 24 °F 34 °F 73 °F (2012)
Min Temperature 8 °F 14 °F -20 °F (1950)
Degree Days  
Heating Degree Days 49    
Moisture  
Dew Point 14 °F    
Average Humidity 84    
Maximum Humidity 93    
Minimum Humidity 73    
Precipitation  
Precipitation 0.13 in - - ()
Sea Level Pressure  
Sea Level Pressure 29.60 in    
Wind  
Wind Speed 11 mph (North)    
Max Wind Speed 24 mph    
Max Gust Speed 33 mph    
Visibility 2 miles    
Events Rain , Snow    
Averages and records for this station are not official NWS values.
T = Trace of Precipitation, MM = Missing Value Source: NWS Daily Summary

Daily Weather History Graph

Daily Weather History Graph

Search for Another Location

Airport or City:

Trip Planner

Search our weather history database for the weather conditions in past years. The results will help you decide how hot, cold, wet, or windy it might be!

Date:

Astronomy

Mar. 18, 2013 Rise Set
Actual Time 7:27 AM CDT 7:31 PM CDT
Civil Twilight 6:56 AM CDT 8:03 PM CDT
Nautical Twilight 6:19 AM CDT 8:40 PM CDT
Astronomical Twilight 5:41 AM CDT 9:18 PM CDT
Moon 10:59 AM CDT (3/18) 2:00 AM CDT (3/18)
Length of Visible Light 13h 06m
Length of Day
12h 03m
Waxing Crescent, 41% of the Moon is Illuminated
Mar 18
Waxing Crescent
Mar 19
First Quarter
Mar 27
Full
Apr 2
Last Quarter
Apr 10
New

Hourly Weather History & Observations

Time (CDT) Temp. Windchill Dew Point Humidity Pressure Visibility Wind Dir Wind Speed Gust Speed Precip Events Conditions
12:14 AM 17.6 °F 10.7 °F 14.0 °F 86% 29.73 in 1.2 mi ESE 4.6 mph - N/A Snow Light Snow
12:34 AM 17.6 °F 9.3 °F 14.0 °F 86% 29.72 in 1.2 mi ESE 5.8 mph - 0.01 in Snow Light Snow
12:53 AM 17.6 °F 8.2 °F 14.0 °F 86% 29.71 in 1.2 mi ESE 6.9 mph - 0.02 in Snow Light Snow
1:14 AM 17.6 °F 6.4 °F 14.0 °F 86% 29.69 in 1.5 mi ESE 9.2 mph - N/A Snow Light Snow
1:34 AM 17.6 °F 6.4 °F 14.0 °F 86% 29.68 in 1.2 mi East 9.2 mph - N/A Snow Light Snow
1:53 AM 17.6 °F 5.7 °F 14.0 °F 86% 29.67 in 1.2 mi East 10.4 mph - N/A Snow Light Snow
2:14 AM 17.6 °F 6.4 °F 14.0 °F 86% 29.66 in 1.0 mi East 9.2 mph - 0.01 in Snow Snow
2:34 AM 17.6 °F 6.4 °F 14.0 °F 86% 29.65 in 1.0 mi East 9.2 mph - 0.01 in Snow Light Snow
2:53 AM 17.6 °F 6.4 °F 14.0 °F 86% 29.64 in 2.0 mi East 9.2 mph - 0.02 in Snow Light Snow
3:14 AM 17.6 °F 5.7 °F 15.8 °F 93% 29.62 in 5.0 mi East 10.4 mph - N/A Snow Light Snow
3:33 AM 17.6 °F 5.7 °F 15.8 °F 93% 29.61 in 4.0 mi East 10.4 mph - N/A Snow Light Snow
3:54 AM 17.6 °F 5.7 °F 15.8 °F 93% 29.61 in 3.0 mi East 10.4 mph - N/A Snow Light Snow
4:14 AM 19.4 °F 7.9 °F 15.8 °F 86% 29.59 in 2.5 mi East 10.4 mph - N/A Snow Light Snow
4:34 AM 19.4 °F 7.9 °F 15.8 °F 86% 29.58 in 1.2 mi East 10.4 mph - N/A Snow Light Snow
4:54 AM 19.4 °F 7.9 °F 15.8 °F 86% 29.56 in 2.0 mi East 10.4 mph - N/A Snow Light Snow
5:14 AM 19.4 °F 7.9 °F 15.8 °F 86% 29.55 in 1.8 mi East 10.4 mph - N/A Snow Light Snow
5:34 AM 19.4 °F 7.2 °F 15.8 °F 86% 29.54 in 2.0 mi East 11.5 mph - 0.01 in Snow Light Snow
5:54 AM 19.4 °F 7.2 °F 15.8 °F 86% 29.54 in 4.0 mi East 11.5 mph - 0.01 in Snow Light Snow
6:14 AM 19.4 °F 7.9 °F 15.8 °F 86% 29.53 in 7.0 mi East 10.4 mph - N/A Snow Light Snow
6:34 AM 19.4 °F 7.9 °F 15.8 °F 86% 29.53 in 4.0 mi East 10.4 mph - N/A Snow Light Snow
6:54 AM 19.4 °F 7.9 °F 15.8 °F 86% 29.52 in 3.0 mi East 10.4 mph - N/A Snow Light Snow
7:14 AM 19.4 °F 7.2 °F 15.8 °F 86% 29.51 in 2.5 mi East 11.5 mph - N/A Snow Light Snow
7:34 AM 19.4 °F 7.9 °F 15.8 °F 86% 29.50 in 2.0 mi East 10.4 mph - N/A Snow Light Snow
7:54 AM 19.4 °F 8.6 °F 15.8 °F 86% 29.50 in 2.0 mi ENE 9.2 mph - N/A Snow Light Snow
8:14 AM 19.4 °F 9.5 °F 15.8 °F 86% 29.49 in 1.8 mi ENE 8.1 mph - 0.01 in Snow Light Snow
8:34 AM 19.4 °F 8.6 °F 15.8 °F 86% 29.48 in 1.2 mi East 9.2 mph - 0.01 in Snow Light Snow
8:54 AM 19.4 °F 9.5 °F 17.6 °F 93% 29.48 in 1.0 mi East 8.1 mph - 0.01 in Snow Light Snow
9:13 AM 21.2 °F 12.6 °F 17.6 °F 86% 29.47 in 1.5 mi ENE 6.9 mph - N/A Snow Light Snow
9:34 AM 21.2 °F 13.6 °F 17.6 °F 86% 29.47 in 0.5 mi NE 5.8 mph - N/A Snow Snow
9:53 AM 21.2 °F 13.6 °F 17.6 °F 86% 29.47 in 1.2 mi NE 5.8 mph - N/A Rain Light Freezing Rain
10:14 AM 21.2 °F 12.6 °F 17.6 °F 86% 29.47 in 1.0 mi NNE 6.9 mph - 0.04 in Snow Light Snow
10:34 AM 21.2 °F 10.9 °F 17.6 °F 86% 29.48 in 1.2 mi NNE 9.2 mph - 0.05 in Snow Light Snow
10:53 AM 21.2 °F 11.7 °F 17.6 °F 86% 29.48 in 2.0 mi NNE 8.1 mph - 0.05 in Snow Light Snow
11:14 AM 21.2 °F 11.7 °F 17.6 °F 86% 29.48 in 1.5 mi NNE 8.1 mph - N/A   Overcast
11:34 AM 23.0 °F 13.1 °F 17.6 °F 80% 29.48 in 3.0 mi NNE 9.2 mph - 0.01 in Snow Light Snow
11:53 AM 23.0 °F 13.9 °F 17.6 °F 80% 29.48 in 5.0 mi NNE 8.1 mph - 0.01 in Snow Light Snow
12:14 PM 23.0 °F 13.1 °F 19.4 °F 86% 29.49 in 3.0 mi North 9.2 mph - N/A Rain Light Freezing Rain
12:34 PM 23.0 °F 12.4 °F 19.4 °F 86% 29.49 in 3.0 mi North 10.4 mph - N/A Rain Light Freezing Rain
12:53 PM 23.0 °F 13.9 °F 19.4 °F 86% 29.50 in 2.5 mi North 8.1 mph - N/A Rain Light Freezing Rain
1:14 PM 23.0 °F 17.0 °F 19.4 °F 86% 29.50 in 1.8 mi NNW 4.6 mph - 0.01 in Rain Light Freezing Rain
1:34 PM 23.0 °F 11.7 °F 19.4 °F 86% 29.51 in 2.5 mi NW 11.5 mph - 0.01 in Rain Light Freezing Rain
1:53 PM 24.8 °F 12.9 °F 19.4 °F 80% 29.51 in 2.0 mi NNW 13.8 mph 19.6 mph 0.01 in Rain Light Freezing Rain
2:14 PM 23.0 °F 11.7 °F 17.6 °F 80% 29.52 in 1.2 mi NNW 11.5 mph 19.6 mph N/A Rain Light Freezing Rain
2:34 PM 21.2 °F 5.2 °F 17.6 °F 86% 29.53 in 0.8 mi NW 21.9 mph 25.3 mph N/A Rain Light Freezing Rain
2:53 PM 21.2 °F 4.9 °F 15.8 °F 80% 29.53 in 1.2 mi NW 23.0 mph 29.9 mph N/A Rain Light Freezing Rain
3:14 PM 21.2 °F 5.6 °F 15.8 °F 80% 29.55 in 1.0 mi NW 20.7 mph 25.3 mph N/A Rain Light Freezing Rain
3:34 PM 21.2 °F 6.4 °F 17.6 °F 86% 29.56 in 1.2 mi NW 18.4 mph 26.5 mph N/A Rain Light Freezing Rain
3:53 PM 19.4 °F 3.6 °F 15.8 °F 86% 29.57 in 1.2 mi WNW 19.6 mph 25.3 mph N/A Rain Light Freezing Rain
4:14 PM 19.4 °F 3.2 °F 14.0 °F 80% 29.58 in 1.5 mi WNW 20.7 mph 31.1 mph N/A Rain Light Freezing Rain
4:34 PM 19.4 °F 3.6 °F 14.0 °F 80% 29.59 in 1.0 mi WNW 19.6 mph 32.2 mph N/A Snow Light Snow
4:53 PM 17.6 °F 2.2 °F 12.2 °F 79% 29.60 in 1.5 mi WNW 17.3 mph 29.9 mph N/A Snow Light Snow
5:14 PM 17.6 °F 0.9 °F 12.2 °F 79% 29.61 in 1.0 mi WNW 20.7 mph 33.4 mph N/A Snow Light Snow
5:34 PM 17.6 °F 0.9 °F 10.4 °F 73% 29.63 in 2.5 mi WNW 20.7 mph 26.5 mph N/A   Haze
5:53 PM 15.8 °F -2.7 °F 10.4 °F 79% 29.64 in 1.2 mi WNW 24.2 mph 29.9 mph N/A Snow Light Snow
6:14 PM 15.8 °F -1.5 °F 10.4 °F 79% 29.65 in 1.5 mi WNW 20.7 mph 29.9 mph N/A Snow Light Snow
6:34 PM 15.8 °F -1.5 °F 10.4 °F 79% 29.67 in 1.8 mi WNW 20.7 mph 27.6 mph N/A Snow Light Snow
6:54 PM 15.8 °F 0.3 °F 10.4 °F 79% 29.68 in 1.8 mi WNW 16.1 mph 31.1 mph N/A Snow Light Snow
7:14 PM 14.0 °F -4.3 °F 8.6 °F 79% 29.69 in 1.8 mi WNW 21.9 mph 27.6 mph N/A Snow Light Snow
7:34 PM 14.0 °F -3.9 °F 8.6 °F 79% 29.70 in 1.8 mi WNW 20.7 mph 27.6 mph N/A Snow Light Snow
7:54 PM 12.2 °F -5.8 °F 8.6 °F 85% 29.71 in 2.5 mi WNW 19.6 mph 26.5 mph N/A Snow Light Snow
8:14 PM 12.2 °F -6.3 °F 8.6 °F 85% 29.72 in 2.5 mi NW 20.7 mph 26.5 mph N/A Snow Light Snow
8:34 PM 12.2 °F -5.8 °F 6.8 °F 79% 29.73 in 3.0 mi WNW 19.6 mph 28.8 mph N/A Snow Light Snow
8:54 PM 12.2 °F -4.8 °F 6.8 °F 79% 29.74 in 3.0 mi WNW 17.3 mph 27.6 mph N/A Snow Light Snow
9:14 PM 12.2 °F -6.7 °F 6.8 °F 79% 29.75 in 3.0 mi WNW 21.9 mph 29.9 mph N/A Snow Light Snow
9:33 PM 12.2 °F -5.8 °F 6.8 °F 79% 29.76 in 3.0 mi WNW 19.6 mph 29.9 mph N/A Snow Light Snow
9:54 PM 10.4 °F -7.7 °F 6.8 °F 85% 29.77 in 4.0 mi WNW 18.4 mph 29.9 mph N/A Snow Light Snow
10:14 PM 10.4 °F -8.2 °F 6.8 °F 85% 29.78 in 4.0 mi NW 19.6 mph 27.6 mph N/A Snow Light Snow
10:54 PM 10.4 °F -7.7 °F 5.0 °F 79% 29.79 in 5.0 mi WNW 18.4 mph 25.3 mph N/A   Haze
11:14 PM 10.4 °F -7.7 °F 3.2 °F 73% 29.79 in 5.0 mi WNW 18.4 mph 26.5 mph N/A   Haze
11:34 PM 8.6 °F -10.0 °F 3.2 °F 79% 29.80 in 5.0 mi WNW 18.4 mph 27.6 mph N/A   Haze
11:54 PM 8.6 °F -10.0 °F 3.2 °F 79% 29.80 in 7.0 mi NW 18.4 mph 26.5 mph N/A   Clear